owner,sensor,date,latitude,longitude,vertical_datum,sea_water_practical_salinity,qcFlag 
DISL,ioos:station:DISL:PPTA:1,2017-11-01T00:00:00Z,30.2791,-87.5561,1.2,9.8,11111222 
DISL,ioos:station:DISL:PPTA:1,2017-11-01T00:30:00Z,30.2791,-87.5561,1.201,22.11,1111122 
DISL,ioos:station:DISL:PPTA:1,2017-11-01T01:00:00Z,30.2791,-87.5561,1.2,21.2,11111222 
DISL,ioos:station:DISL:PPTA:1,2017-11-01T01:30:00Z,30.2791,-87.5561,1.199,29.27,1111122 
DISL,ioos:station:DISL:PPTA:1,2017-11-01T02:00:00Z,30.2791,-87.5561,1.2,29.7,11111222 
DISL,ioos:station:DISL:PPTA:1,2017-11-01T02:30:00Z,30.2791,-87.5561,1.199,30.27,1111122 
DISL,ioos:station:DISL:PPTA:1,2017-11-01T03:00:00Z,30.2791,-87.5561,1.2,30.6,11111222 
DISL,ioos:station:DISL:PPTA:1,2017-11-01T03:30:00Z,30.2791,-87.5561,1.192,30.68,1111122 
DISL,ioos:station:DISL:PPTA:1,2017-11-01T04:00:00Z,30.2791,-87.5561,1.2,30.7,11111222 
DISL,ioos:station:DISL:PPTA:1,2017-11-01T04:30:00Z,30.2791,-87.5561,1.191,31.63,1111122 
DISL,ioos:station:DISL:PPTA:1,2017-11-01T05:00:00Z,30.2791,-87.5561,1.2,31.5,11111222 
DISL,ioos:station:DISL:PPTA:1,2017-11-01T05:30:00Z,30.2791,-87.5561,1.18,29.81,1111122 
DISL,ioos:station:DISL:PPTA:1,2017-11-01T06:00:00Z,30.2791,-87.5561,1.2,25.0,11111222 
DISL,ioos:station:DISL:PPTA:1,2017-11-01T06:30:00Z,30.2791,-87.5561,1.197,20.32,1111122 
DISL,ioos:station:DISL:PPTA:1,2017-11-01T07:00:00Z,30.2791,-87.5561,1.2,21.5,11111222 
DISL,ioos:station:DISL:PPTA:1,2017-11-01T07:30:00Z,30.2791,-87.5561,1.218,13.22,1111122 
DISL,ioos:station:DISL:PPTA:1,2017-11-01T08:00:00Z,30.2791,-87.5561,1.2,7.9,11111222 
DISL,ioos:station:DISL:PPTA:1,2017-11-01T08:30:00Z,30.2791,-87.5561,1.241,7.86,1111122 
DISL,ioos:station:DISL:PPTA:1,2017-11-01T09:00:00Z,30.2791,-87.5561,1.2,8.7,11111222 
DISL,ioos:station:DISL:PPTA:1,2017-11-01T09:30:00Z,30.2791,-87.5561,1.242,13.46,1111122 
DISL,ioos:station:DISL:PPTA:1,2017-11-01T10:00:00Z,30.2791,-87.5561,1.3,11.5,11111222 
DISL,ioos:station:DISL:PPTA:1,2017-11-01T10:30:00Z,30.2791,-87.5561,1.248,25.2,1111122 
DISL,ioos:station:DISL:PPTA:1,2017-11-01T11:00:00Z,30.2791,-87.5561,1.3,27.7,11111222 
DISL,ioos:station:DISL:PPTA:1,2017-11-01T11:30:00Z,30.2791,-87.5561,1.258,28.32,1111122 
DISL,ioos:station:DISL:PPTA:1,2017-11-01T12:00:00Z,30.2791,-87.5561,1.3,28.5,11111222 
DISL,ioos:station:DISL:PPTA:1,2017-11-01T12:30:00Z,30.2791,-87.5561,1.278,29.06,1111122 
DISL,ioos:station:DISL:PPTA:1,2017-11-01T13:00:00Z,30.2791,-87.5561,1.3,29.2,11111222 
DISL,ioos:station:DISL:PPTA:1,2017-11-01T13:30:00Z,30.2791,-87.5561,1.303,29.64,1111122 
DISL,ioos:station:DISL:PPTA:1,2017-11-01T14:00:00Z,30.2791,-87.5561,1.3,28.9,11111222 
DISL,ioos:station:DISL:PPTA:1,2017-11-01T14:30:00Z,30.2791,-87.5561,1.32,28.68,1111122 
DISL,ioos:station:DISL:PPTA:1,2017-11-01T15:00:00Z,30.2791,-87.5561,1.3,28.7,11111222 
DISL,ioos:station:DISL:PPTA:1,2017-11-01T15:30:00Z,30.2791,-87.5561,1.323,28.13,1111122 
DISL,ioos:station:DISL:PPTA:1,2017-11-01T16:00:00Z,30.2791,-87.5561,1.3,28.1,11111222 
DISL,ioos:station:DISL:PPTA:1,2017-11-01T16:30:00Z,30.2791,-87.5561,1.326,27.82,1111122 
DISL,ioos:station:DISL:PPTA:1,2017-11-01T17:00:00Z,30.2791,-87.5561,1.3,27.4,11111222 
DISL,ioos:station:DISL:PPTA:1,2017-11-01T17:30:00Z,30.2791,-87.5561,1.323,27.81,1111122 
DISL,ioos:station:DISL:PPTA:1,2017-11-01T18:00:00Z,30.2791,-87.5561,1.3,27.6,11111222 
DISL,ioos:station:DISL:PPTA:1,2017-11-01T18:30:00Z,30.2791,-87.5561,1.316,27.72,1111122 
DISL,ioos:station:DISL:PPTA:1,2017-11-01T19:00:00Z,30.2791,-87.5561,1.3,27.7,11111222 
DISL,ioos:station:DISL:PPTA:1,2017-11-01T19:30:00Z,30.2791,-87.5561,1.346,27.47,1111122 
DISL,ioos:station:DISL:PPTA:1,2017-11-01T20:00:00Z,30.2791,-87.5561,1.3,27.2,11111222 
DISL,ioos:station:DISL:PPTA:1,2017-11-01T20:30:00Z,30.2791,-87.5561,1.349,25.43,1111122 
DISL,ioos:station:DISL:PPTA:1,2017-11-01T21:00:00Z,30.2791,-87.5561,1.4,24.0,11111222 
DISL,ioos:station:DISL:PPTA:1,2017-11-01T21:30:00Z,30.2791,-87.5561,1.364,26.11,1111122 
DISL,ioos:station:DISL:PPTA:1,2017-11-01T22:00:00Z,30.2791,-87.5561,1.4,27.5,11111222 
DISL,ioos:station:DISL:PPTA:1,2017-11-01T22:30:00Z,30.2791,-87.5561,1.393,28.29,1111122 
DISL,ioos:station:DISL:PPTA:1,2017-11-01T23:00:00Z,30.2791,-87.5561,1.4,27.8,11111222 
DISL,ioos:station:DISL:PPTA:1,2017-11-01T23:30:00Z,30.2791,-87.5561,1.386,26.71,1111122 
DISL,ioos:station:DISL:PPTA:1,2017-11-02T00:00:00Z,30.2791,-87.5561,1.4,27.4,11111222 
DISL,ioos:station:DISL:PPTA:1,2017-11-02T00:30:00Z,30.2791,-87.5561,1.395,26.99,1111122 
DISL,ioos:station:DISL:PPTA:1,2017-11-02T01:00:00Z,30.2791,-87.5561,1.4,28.7,11111222 
DISL,ioos:station:DISL:PPTA:1,2017-11-02T01:30:00Z,30.2791,-87.5561,1.427,29.13,1111122 
DISL,ioos:station:DISL:PPTA:1,2017-11-02T02:00:00Z,30.2791,-87.5561,1.4,29.5,11111222 
DISL,ioos:station:DISL:PPTA:1,2017-11-02T02:30:00Z,30.2791,-87.5561,1.435,29.55,1111122 
DISL,ioos:station:DISL:PPTA:1,2017-11-02T03:00:00Z,30.2791,-87.5561,1.4,29.1,11111222 
DISL,ioos:station:DISL:PPTA:1,2017-11-02T03:30:00Z,30.2791,-87.5561,1.44,28.26,1111122 
DISL,ioos:station:DISL:PPTA:1,2017-11-02T04:00:00Z,30.2791,-87.5561,1.4,28.6,11111222 
DISL,ioos:station:DISL:PPTA:1,2017-11-02T04:30:00Z,30.2791,-87.5561,1.419,27.09,1111122 
DISL,ioos:station:DISL:PPTA:1,2017-11-02T05:00:00Z,30.2791,-87.5561,1.4,28.0,11111222 
DISL,ioos:station:DISL:PPTA:1,2017-11-02T05:30:00Z,30.2791,-87.5561,1.37,27.95,1111122 
DISL,ioos:station:DISL:PPTA:1,2017-11-02T06:00:00Z,30.2791,-87.5561,1.4,27.9,11111222 
DISL,ioos:station:DISL:PPTA:1,2017-11-02T06:30:00Z,30.2791,-87.5561,1.396,25.09,1111122 
DISL,ioos:station:DISL:PPTA:1,2017-11-02T07:00:00Z,30.2791,-87.5561,1.4,23.4,11111222 
DISL,ioos:station:DISL:PPTA:1,2017-11-02T07:30:00Z,30.2791,-87.5561,1.416,12.58,1111122 
DISL,ioos:station:DISL:PPTA:1,2017-11-02T08:00:00Z,30.2791,-87.5561,1.4,23.5,11111222 
DISL,ioos:station:DISL:PPTA:1,2017-11-02T08:30:00Z,30.2791,-87.5561,1.381,11.39,1111122 
DISL,ioos:station:DISL:PPTA:1,2017-11-02T09:00:00Z,30.2791,-87.5561,1.4,9.3,11111222 
DISL,ioos:station:DISL:PPTA:1,2017-11-02T09:30:00Z,30.2791,-87.5561,1.373,23.5,1111122 
DISL,ioos:station:DISL:PPTA:1,2017-11-02T10:00:00Z,30.2791,-87.5561,1.4,21.3,11111222 
DISL,ioos:station:DISL:PPTA:1,2017-11-02T10:30:00Z,30.2791,-87.5561,1.373,26.86,1111122 
DISL,ioos:station:DISL:PPTA:1,2017-11-02T11:00:00Z,30.2791,-87.5561,1.4,23.8,11111222 
DISL,ioos:station:DISL:PPTA:1,2017-11-02T11:30:00Z,30.2791,-87.5561,1.379,15.21,1111122 
DISL,ioos:station:DISL:PPTA:1,2017-11-02T12:00:00Z,30.2791,-87.5561,1.4,12.3,11111222 
DISL,ioos:station:DISL:PPTA:1,2017-11-02T12:30:00Z,30.2791,-87.5561,1.378,12.33,1111122 
DISL,ioos:station:DISL:PPTA:1,2017-11-02T13:00:00Z,30.2791,-87.5561,1.4,11.7,11111222 
DISL,ioos:station:DISL:PPTA:1,2017-11-02T13:30:00Z,30.2791,-87.5561,1.378,10.57,1111122 
DISL,ioos:station:DISL:PPTA:1,2017-11-02T14:00:00Z,30.2791,-87.5561,1.4,10.0,11111222 
DISL,ioos:station:DISL:PPTA:1,2017-11-02T14:30:00Z,30.2791,-87.5561,1.384,10.4,1111122 
DISL,ioos:station:DISL:PPTA:1,2017-11-02T15:00:00Z,30.2791,-87.5561,1.4,19.3,11111222 
DISL,ioos:station:DISL:PPTA:1,2017-11-02T15:30:00Z,30.2791,-87.5561,1.373,21.84,1111122 
DISL,ioos:station:DISL:PPTA:1,2017-11-02T16:00:00Z,30.2791,-87.5561,1.4,25.8,11111222 
DISL,ioos:station:DISL:PPTA:1,2017-11-02T16:30:00Z,30.2791,-87.5561,1.347,24.84,1111122 
DISL,ioos:station:DISL:PPTA:1,2017-11-02T17:00:00Z,30.2791,-87.5561,1.4,23.1,11111222 
DISL,ioos:station:DISL:PPTA:1,2017-11-02T17:30:00Z,30.2791,-87.5561,1.342,21.61,1111122 
DISL,ioos:station:DISL:PPTA:1,2017-11-02T18:00:00Z,30.2791,-87.5561,1.4,15.0,11111222 
DISL,ioos:station:DISL:PPTA:1,2017-11-02T18:30:00Z,30.2791,-87.5561,1.352,11.65,1111122 
DISL,ioos:station:DISL:PPTA:1,2017-11-02T19:00:00Z,30.2791,-87.5561,1.4,12.0,11111222 
DISL,ioos:station:DISL:PPTA:1,2017-11-02T19:30:00Z,30.2791,-87.5561,1.364,11.22,1111122 
DISL,ioos:station:DISL:PPTA:1,2017-11-02T20:00:00Z,30.2791,-87.5561,1.4,10.4,11111222 
DISL,ioos:station:DISL:PPTA:1,2017-11-02T20:30:00Z,30.2791,-87.5561,1.376,10.62,1111122 
DISL,ioos:station:DISL:PPTA:1,2017-11-02T21:00:00Z,30.2791,-87.5561,1.4,9.9,11111222 
DISL,ioos:station:DISL:PPTA:1,2017-11-02T21:30:00Z,30.2791,-87.5561,1.38,8.44,1111122 
DISL,ioos:station:DISL:PPTA:1,2017-11-02T22:00:00Z,30.2791,-87.5561,1.4,9.8,11111222 
DISL,ioos:station:DISL:PPTA:1,2017-11-02T22:30:00Z,30.2791,-87.5561,1.386,12.13,1111122 
DISL,ioos:station:DISL:PPTA:1,2017-11-02T23:00:00Z,30.2791,-87.5561,1.4,19.7,11111222 
DISL,ioos:station:DISL:PPTA:1,2017-11-02T23:30:00Z,30.2791,-87.5561,1.379,25.5,1111122 
DISL,ioos:station:DISL:PPTA:1,2017-11-03T00:00:00Z,30.2791,-87.5561,1.4,27.1,11111222 
DISL,ioos:station:DISL:PPTA:1,2017-11-03T00:30:00Z,30.2791,-87.5561,1.4,28.59,1111122 
DISL,ioos:station:DISL:PPTA:1,2017-11-03T01:00:00Z,30.2791,-87.5561,1.4,29.4,11111222 
DISL,ioos:station:DISL:PPTA:1,2017-11-03T01:30:00Z,30.2791,-87.5561,1.398,28.58,1111122 
DISL,ioos:station:DISL:PPTA:1,2017-11-03T02:00:00Z,30.2791,-87.5561,1.4,29.5,11111222 
DISL,ioos:station:DISL:PPTA:1,2017-11-03T02:30:00Z,30.2791,-87.5561,1.411,28.72,1111122 
DISL,ioos:station:DISL:PPTA:1,2017-11-03T03:00:00Z,30.2791,-87.5561,1.4,28.8,11111222 
DISL,ioos:station:DISL:PPTA:1,2017-11-03T03:30:00Z,30.2791,-87.5561,1.402,28.9,1111122 
DISL,ioos:station:DISL:PPTA:1,2017-11-03T04:00:00Z,30.2791,-87.5561,1.4,28.6,11111222 
DISL,ioos:station:DISL:PPTA:1,2017-11-03T04:30:00Z,30.2791,-87.5561,1.381,26.92,1111122 
DISL,ioos:station:DISL:PPTA:1,2017-11-03T05:00:00Z,30.2791,-87.5561,1.4,22.2,11111222 
DISL,ioos:station:DISL:PPTA:1,2017-11-03T05:30:00Z,30.2791,-87.5561,1.347,24.93,1111122 
DISL,ioos:station:DISL:PPTA:1,2017-11-03T06:00:00Z,30.2791,-87.5561,1.4,20.4,11111222 
DISL,ioos:station:DISL:PPTA:1,2017-11-03T06:30:00Z,30.2791,-87.5561,1.334,17.59,1111122 
DISL,ioos:station:DISL:PPTA:1,2017-11-03T07:00:00Z,30.2791,-87.5561,1.3,14.5,11111222 
DISL,ioos:station:DISL:PPTA:1,2017-11-03T07:30:00Z,30.2791,-87.5561,1.308,14.27,1111122 
DISL,ioos:station:DISL:PPTA:1,2017-11-03T08:00:00Z,30.2791,-87.5561,1.3,13.5,11111222 
DISL,ioos:station:DISL:PPTA:1,2017-11-03T08:30:00Z,30.2791,-87.5561,1.295,13.88,1111122 
DISL,ioos:station:DISL:PPTA:1,2017-11-03T09:00:00Z,30.2791,-87.5561,1.3,13.1,11111222 
DISL,ioos:station:DISL:PPTA:1,2017-11-03T09:30:00Z,30.2791,-87.5561,1.271,11.86,1111122 
DISL,ioos:station:DISL:PPTA:1,2017-11-03T10:00:00Z,30.2791,-87.5561,1.3,13.5,11111222 
DISL,ioos:station:DISL:PPTA:1,2017-11-03T10:30:00Z,30.2791,-87.5561,1.282,13.46,1111122 
DISL,ioos:station:DISL:PPTA:1,2017-11-03T11:00:00Z,30.2791,-87.5561,1.3,13.4,11111222 
DISL,ioos:station:DISL:PPTA:1,2017-11-03T11:30:00Z,30.2791,-87.5561,1.272,11.5,1111122 
DISL,ioos:station:DISL:PPTA:1,2017-11-03T12:00:00Z,30.2791,-87.5561,1.3,11.8,11111222 
DISL,ioos:station:DISL:PPTA:1,2017-11-03T12:30:00Z,30.2791,-87.5561,1.267,10.69,1111122 
DISL,ioos:station:DISL:PPTA:1,2017-11-03T13:00:00Z,30.2791,-87.5561,1.3,12.1,11111222 
DISL,ioos:station:DISL:PPTA:1,2017-11-03T13:30:00Z,30.2791,-87.5561,1.269,10.75,1111122 
DISL,ioos:station:DISL:PPTA:1,2017-11-03T14:00:00Z,30.2791,-87.5561,1.3,8.5,11111222 
DISL,ioos:station:DISL:PPTA:1,2017-11-03T14:30:00Z,30.2791,-87.5561,1.282,7.88,1111122 
DISL,ioos:station:DISL:PPTA:1,2017-11-03T15:00:00Z,30.2791,-87.5561,1.3,8.8,11111222 
DISL,ioos:station:DISL:PPTA:1,2017-11-03T15:30:00Z,30.2791,-87.5561,1.281,15.09,1111122 
DISL,ioos:station:DISL:PPTA:1,2017-11-03T16:00:00Z,30.2791,-87.5561,1.3,23.5,11111222 
DISL,ioos:station:DISL:PPTA:1,2017-11-03T16:30:00Z,30.2791,-87.5561,1.283,25.19,1111122 
DISL,ioos:station:DISL:PPTA:1,2017-11-03T17:00:00Z,30.2791,-87.5561,1.3,26.7,11111222 
DISL,ioos:station:DISL:PPTA:1,2017-11-03T17:30:00Z,30.2791,-87.5561,1.297,26.79,1111122 
DISL,ioos:station:DISL:PPTA:1,2017-11-03T18:00:00Z,30.2791,-87.5561,1.3,27.3,11111222 
DISL,ioos:station:DISL:PPTA:1,2017-11-03T18:30:00Z,30.2791,-87.5561,1.292,27.37,1111122 
DISL,ioos:station:DISL:PPTA:1,2017-11-03T19:00:00Z,30.2791,-87.5561,1.3,27.1,11111222 
DISL,ioos:station:DISL:PPTA:1,2017-11-03T19:30:00Z,30.2791,-87.5561,1.312,27.18,1111122 
DISL,ioos:station:DISL:PPTA:1,2017-11-03T20:00:00Z,30.2791,-87.5561,1.3,27.4,11111222 
DISL,ioos:station:DISL:PPTA:1,2017-11-03T20:30:00Z,30.2791,-87.5561,1.332,27.12,1111122 
DISL,ioos:station:DISL:PPTA:1,2017-11-03T21:00:00Z,30.2791,-87.5561,1.4,27.8,11111222 
DISL,ioos:station:DISL:PPTA:1,2017-11-03T21:30:00Z,30.2791,-87.5561,1.359,27.29,1111122 
DISL,ioos:station:DISL:PPTA:1,2017-11-03T22:00:00Z,30.2791,-87.5561,1.4,26.7,11111222 
DISL,ioos:station:DISL:PPTA:1,2017-11-03T22:30:00Z,30.2791,-87.5561,1.398,26.59,1111122 
DISL,ioos:station:DISL:PPTA:1,2017-11-03T23:00:00Z,30.2791,-87.5561,1.4,25.8,11111222 
DISL,ioos:station:DISL:PPTA:1,2017-11-03T23:30:00Z,30.2791,-87.5561,1.432,28.33,1111122 
DISL,ioos:station:DISL:PPTA:1,2017-11-04T00:00:00Z,30.2791,-87.5561,1.4,28.8,11111222 
DISL,ioos:station:DISL:PPTA:1,2017-11-04T00:30:00Z,30.2791,-87.5561,1.448,29.12,1111122 
DISL,ioos:station:DISL:PPTA:1,2017-11-04T01:00:00Z,30.2791,-87.5561,1.5,29.1,11111222 
DISL,ioos:station:DISL:PPTA:1,2017-11-04T01:30:00Z,30.2791,-87.5561,1.46,29.02,1111122 
DISL,ioos:station:DISL:PPTA:1,2017-11-04T02:00:00Z,30.2791,-87.5561,1.5,28.8,11111222 
DISL,ioos:station:DISL:PPTA:1,2017-11-04T02:30:00Z,30.2791,-87.5561,1.462,28.89,1111122 
DISL,ioos:station:DISL:PPTA:1,2017-11-04T03:00:00Z,30.2791,-87.5561,1.5,28.8,11111222 
DISL,ioos:station:DISL:PPTA:1,2017-11-04T03:30:00Z,30.2791,-87.5561,1.485,28.93,1111122 
DISL,ioos:station:DISL:PPTA:1,2017-11-04T04:00:00Z,30.2791,-87.5561,1.5,29.0,11111222 
DISL,ioos:station:DISL:PPTA:1,2017-11-04T04:30:00Z,30.2791,-87.5561,1.453,28.98,1111122 
DISL,ioos:station:DISL:PPTA:1,2017-11-04T05:00:00Z,30.2791,-87.5561,1.4,28.8,11111222 
DISL,ioos:station:DISL:PPTA:1,2017-11-04T05:30:00Z,30.2791,-87.5561,1.416,27.28,1111122 
DISL,ioos:station:DISL:PPTA:1,2017-11-04T06:00:00Z,30.2791,-87.5561,1.4,26.5,11111222 
DISL,ioos:station:DISL:PPTA:1,2017-11-04T06:30:00Z,30.2791,-87.5561,1.382,26.24,1111122 
DISL,ioos:station:DISL:PPTA:1,2017-11-04T07:00:00Z,30.2791,-87.5561,1.4,23.7,11111222 
DISL,ioos:station:DISL:PPTA:1,2017-11-04T07:30:00Z,30.2791,-87.5561,1.343,18.64,1111122 
DISL,ioos:station:DISL:PPTA:1,2017-11-04T08:00:00Z,30.2791,-87.5561,1.3,26.8,11111222 
DISL,ioos:station:DISL:PPTA:1,2017-11-04T08:30:00Z,30.2791,-87.5561,1.3,26.5,1111122 
DISL,ioos:station:DISL:PPTA:1,2017-11-04T09:00:00Z,30.2791,-87.5561,1.3,19.5,11111222 
DISL,ioos:station:DISL:PPTA:1,2017-11-04T09:30:00Z,30.2791,-87.5561,1.264,19.16,1111122 
DISL,ioos:station:DISL:PPTA:1,2017-11-04T10:00:00Z,30.2791,-87.5561,1.3,17.7,11111222 
DISL,ioos:station:DISL:PPTA:1,2017-11-04T10:30:00Z,30.2791,-87.5561,1.248,18.77,1111122 
DISL,ioos:station:DISL:PPTA:1,2017-11-04T11:00:00Z,30.2791,-87.5561,1.2,15.1,11111222 
DISL,ioos:station:DISL:PPTA:1,2017-11-04T11:30:00Z,30.2791,-87.5561,1.246,13.69,1111122 
DISL,ioos:station:DISL:PPTA:1,2017-11-04T12:00:00Z,30.2791,-87.5561,1.2,12.9,11111222 
DISL,ioos:station:DISL:PPTA:1,2017-11-04T12:30:00Z,30.2791,-87.5561,1.233,13.0,1111122 
DISL,ioos:station:DISL:PPTA:1,2017-11-04T13:00:00Z,30.2791,-87.5561,1.2,12.4,11111222 
DISL,ioos:station:DISL:PPTA:1,2017-11-04T13:30:00Z,30.2791,-87.5561,1.226,12.23,1111122 
DISL,ioos:station:DISL:PPTA:1,2017-11-04T14:00:00Z,30.2791,-87.5561,1.2,12.6,11111222 
DISL,ioos:station:DISL:PPTA:1,2017-11-04T14:30:00Z,30.2791,-87.5561,1.238,11.49,1111122 
DISL,ioos:station:DISL:PPTA:1,2017-11-04T15:00:00Z,30.2791,-87.5561,1.2,19.1,11111222 
DISL,ioos:station:DISL:PPTA:1,2017-11-04T15:30:00Z,30.2791,-87.5561,1.24,11.88,1111122 
DISL,ioos:station:DISL:PPTA:1,2017-11-04T16:00:00Z,30.2791,-87.5561,1.2,12.3,11111222 
DISL,ioos:station:DISL:PPTA:1,2017-11-04T16:30:00Z,30.2791,-87.5561,1.251,11.87,1111122 
DISL,ioos:station:DISL:PPTA:1,2017-11-04T17:00:00Z,30.2791,-87.5561,1.2,16.5,11111222 
DISL,ioos:station:DISL:PPTA:1,2017-11-04T17:30:00Z,30.2791,-87.5561,1.243,25.11,1111122 
DISL,ioos:station:DISL:PPTA:1,2017-11-04T18:00:00Z,30.2791,-87.5561,1.2,27.4,11111222 
DISL,ioos:station:DISL:PPTA:1,2017-11-04T18:30:00Z,30.2791,-87.5561,1.232,28.94,1111122 
DISL,ioos:station:DISL:PPTA:1,2017-11-04T19:00:00Z,30.2791,-87.5561,1.2,29.7,11111222 
DISL,ioos:station:DISL:PPTA:1,2017-11-04T19:30:00Z,30.2791,-87.5561,1.256,29.24,1111122 
DISL,ioos:station:DISL:PPTA:1,2017-11-04T20:00:00Z,30.2791,-87.5561,1.3,28.7,11111222 
DISL,ioos:station:DISL:PPTA:1,2017-11-04T20:30:00Z,30.2791,-87.5561,1.278,28.86,1111122 
DISL,ioos:station:DISL:PPTA:1,2017-11-04T21:00:00Z,30.2791,-87.5561,1.3,28.5,11111222 
DISL,ioos:station:DISL:PPTA:1,2017-11-04T21:30:00Z,30.2791,-87.5561,1.311,28.61,1111122 
DISL,ioos:station:DISL:PPTA:1,2017-11-04T22:00:00Z,30.2791,-87.5561,1.3,28.2,11111222 
DISL,ioos:station:DISL:PPTA:1,2017-11-04T22:30:00Z,30.2791,-87.5561,1.355,27.67,1111122 
DISL,ioos:station:DISL:PPTA:1,2017-11-04T23:00:00Z,30.2791,-87.5561,1.4,26.8,11111222 
DISL,ioos:station:DISL:PPTA:1,2017-11-04T23:30:00Z,30.2791,-87.5561,1.395,27.33,1111122 
DISL,ioos:station:DISL:PPTA:1,2017-11-05T00:00:00Z,30.2791,-87.5561,1.4,27.4,11111222 
DISL,ioos:station:DISL:PPTA:1,2017-11-05T00:30:00Z,30.2791,-87.5561,1.432,27.78,1111122 
DISL,ioos:station:DISL:PPTA:1,2017-11-05T01:00:00Z,30.2791,-87.5561,1.5,28.4,11111222 
DISL,ioos:station:DISL:PPTA:1,2017-11-05T01:30:00Z,30.2791,-87.5561,1.46,28.24,1111122 
DISL,ioos:station:DISL:PPTA:1,2017-11-05T02:00:00Z,30.2791,-87.5561,1.5,28.3,11111222 
DISL,ioos:station:DISL:PPTA:1,2017-11-05T02:30:00Z,30.2791,-87.5561,1.469,28.69,1111122 
DISL,ioos:station:DISL:PPTA:1,2017-11-05T03:00:00Z,30.2791,-87.5561,1.5,28.6,11111222 
DISL,ioos:station:DISL:PPTA:1,2017-11-05T03:30:00Z,30.2791,-87.5561,1.479,28.45,1111122 
DISL,ioos:station:DISL:PPTA:1,2017-11-05T04:00:00Z,30.2791,-87.5561,1.5,28.4,11111222 
DISL,ioos:station:DISL:PPTA:1,2017-11-05T04:30:00Z,30.2791,-87.5561,1.489,28.58,1111122 
DISL,ioos:station:DISL:PPTA:1,2017-11-05T05:00:00Z,30.2791,-87.5561,1.5,28.1,11111222 
DISL,ioos:station:DISL:PPTA:1,2017-11-05T05:30:00Z,30.2791,-87.5561,1.461,29.02,1111122 
DISL,ioos:station:DISL:PPTA:1,2017-11-05T06:00:00Z,30.2791,-87.5561,1.4,29.6,11111222 
DISL,ioos:station:DISL:PPTA:1,2017-11-05T06:30:00Z,30.2791,-87.5561,1.412,28.47,1111122 
DISL,ioos:station:DISL:PPTA:1,2017-11-05T07:00:00Z,30.2791,-87.5561,1.4,25.3,11111222 
DISL,ioos:station:DISL:PPTA:1,2017-11-05T07:30:00Z,30.2791,-87.5561,1.4,26.7,11111222 
DISL,ioos:station:DISL:PPTA:1,2017-11-05T08:00:00Z,30.2791,-87.5561,1.4,21.5,11111222 
DISL,ioos:station:DISL:PPTA:1,2017-11-05T08:30:00Z,30.2791,-87.5561,1.352,20.65,1111122 
DISL,ioos:station:DISL:PPTA:1,2017-11-05T09:00:00Z,30.2791,-87.5561,1.3,20.4,11111222 
DISL,ioos:station:DISL:PPTA:1,2017-11-05T09:30:00Z,30.2791,-87.5561,1.311,24.2,1111122 
DISL,ioos:station:DISL:PPTA:1,2017-11-05T10:00:00Z,30.2791,-87.5561,1.3,25.5,11111222 
DISL,ioos:station:DISL:PPTA:1,2017-11-05T10:30:00Z,30.2791,-87.5561,1.263,23.1,1111122 
DISL,ioos:station:DISL:PPTA:1,2017-11-05T11:00:00Z,30.2791,-87.5561,1.3,24.7,11111222 
DISL,ioos:station:DISL:PPTA:1,2017-11-05T11:30:00Z,30.2791,-87.5561,1.263,17.98,1111122 
DISL,ioos:station:DISL:PPTA:1,2017-11-05T12:00:00Z,30.2791,-87.5561,1.3,17.3,11111222 
DISL,ioos:station:DISL:PPTA:1,2017-11-05T12:30:00Z,30.2791,-87.5561,1.244,16.92,1111122 
DISL,ioos:station:DISL:PPTA:1,2017-11-05T13:00:00Z,30.2791,-87.5561,1.2,16.5,11111222 
DISL,ioos:station:DISL:PPTA:1,2017-11-05T13:30:00Z,30.2791,-87.5561,1.223,18.92,1111122 
DISL,ioos:station:DISL:PPTA:1,2017-11-05T14:00:00Z,30.2791,-87.5561,1.2,14.9,11111222 
DISL,ioos:station:DISL:PPTA:1,2017-11-05T14:30:00Z,30.2791,-87.5561,1.227,13.85,1111122 
DISL,ioos:station:DISL:PPTA:1,2017-11-05T15:00:00Z,30.2791,-87.5561,1.2,13.3,11111222 
DISL,ioos:station:DISL:PPTA:1,2017-11-05T15:30:00Z,30.2791,-87.5561,1.219,15.22,1111122 
DISL,ioos:station:DISL:PPTA:1,2017-11-05T16:00:00Z,30.2791,-87.5561,1.2,17.3,11111222 
DISL,ioos:station:DISL:PPTA:1,2017-11-05T16:30:00Z,30.2791,-87.5561,1.248,15.46,1111122 
DISL,ioos:station:DISL:PPTA:1,2017-11-05T17:00:00Z,30.2791,-87.5561,1.3,13.1,11111222 
DISL,ioos:station:DISL:PPTA:1,2017-11-05T17:30:00Z,30.2791,-87.5561,1.26,15.08,1111122 
DISL,ioos:station:DISL:PPTA:1,2017-11-05T18:00:00Z,30.2791,-87.5561,1.3,17.2,11111222 
DISL,ioos:station:DISL:PPTA:1,2017-11-05T18:30:00Z,30.2791,-87.5561,1.241,25.95,1111122 
DISL,ioos:station:DISL:PPTA:1,2017-11-05T19:00:00Z,30.2791,-87.5561,1.2,30.2,11111222 
DISL,ioos:station:DISL:PPTA:1,2017-11-05T19:30:00Z,30.2791,-87.5561,1.251,30.76,1111122 
DISL,ioos:station:DISL:PPTA:1,2017-11-05T20:00:00Z,30.2791,-87.5561,1.3,30.9,11111222 
DISL,ioos:station:DISL:PPTA:1,2017-11-05T20:30:00Z,30.2791,-87.5561,1.284,30.12,1111122 
DISL,ioos:station:DISL:PPTA:1,2017-11-05T21:00:00Z,30.2791,-87.5561,1.3,30.4,11111222 
DISL,ioos:station:DISL:PPTA:1,2017-11-05T21:30:00Z,30.2791,-87.5561,1.321,30.0,1111122 
DISL,ioos:station:DISL:PPTA:1,2017-11-05T22:00:00Z,30.2791,-87.5561,1.3,29.6,11111222 
DISL,ioos:station:DISL:PPTA:1,2017-11-05T22:30:00Z,30.2791,-87.5561,1.358,29.01,1111122 
DISL,ioos:station:DISL:PPTA:1,2017-11-05T23:00:00Z,30.2791,-87.5561,1.4,29.3,11111222 
DISL,ioos:station:DISL:PPTA:1,2017-11-05T23:30:00Z,30.2791,-87.5561,1.399,29.38,1111122 
DISL,ioos:station:DISL:PPTA:1,2017-11-06T00:00:00Z,30.2791,-87.5561,1.4,28.8,11111222 
DISL,ioos:station:DISL:PPTA:1,2017-11-06T00:30:00Z,30.2791,-87.5561,1.452,29.17,1111122 
DISL,ioos:station:DISL:PPTA:1,2017-11-06T01:00:00Z,30.2791,-87.5561,1.5,29.2,11111222 
DISL,ioos:station:DISL:PPTA:1,2017-11-06T01:30:00Z,30.2791,-87.5561,1.486,29.02,1111122 
DISL,ioos:station:DISL:PPTA:1,2017-11-06T02:00:00Z,30.2791,-87.5561,1.5,28.0,11111222 
DISL,ioos:station:DISL:PPTA:1,2017-11-06T02:30:00Z,30.2791,-87.5561,1.508,28.44,1111122 
DISL,ioos:station:DISL:PPTA:1,2017-11-06T03:00:00Z,30.2791,-87.5561,1.5,27.8,11111222 
DISL,ioos:station:DISL:PPTA:1,2017-11-06T03:30:00Z,30.2791,-87.5561,1.523,28.32,1111122 
DISL,ioos:station:DISL:PPTA:1,2017-11-06T04:00:00Z,30.2791,-87.5561,1.5,27.7,11111222 
DISL,ioos:station:DISL:PPTA:1,2017-11-06T04:30:00Z,30.2791,-87.5561,1.534,27.52,1111122 
DISL,ioos:station:DISL:PPTA:1,2017-11-06T05:00:00Z,30.2791,-87.5561,1.5,28.5,11111222 
DISL,ioos:station:DISL:PPTA:1,2017-11-06T05:30:00Z,30.2791,-87.5561,1.523,28.38,1111122 
DISL,ioos:station:DISL:PPTA:1,2017-11-06T06:00:00Z,30.2791,-87.5561,1.5,28.3,11111222 
DISL,ioos:station:DISL:PPTA:1,2017-11-06T06:30:00Z,30.2791,-87.5561,1.491,27.7,1111122 
DISL,ioos:station:DISL:PPTA:1,2017-11-06T07:00:00Z,30.2791,-87.5561,1.5,27.9,11111222 
DISL,ioos:station:DISL:PPTA:1,2017-11-06T07:30:00Z,30.2791,-87.5561,1.443,27.56,1111122 
DISL,ioos:station:DISL:PPTA:1,2017-11-06T08:00:00Z,30.2791,-87.5561,1.4,27.3,11111222 
DISL,ioos:station:DISL:PPTA:1,2017-11-06T08:30:00Z,30.2791,-87.5561,1.401,26.91,1111122 
DISL,ioos:station:DISL:PPTA:1,2017-11-06T09:00:00Z,30.2791,-87.5561,1.37,25.81,1111122 
DISL,ioos:station:DISL:PPTA:1,2017-11-06T09:30:00Z,30.2791,-87.5561,1.4,25.1,11111222 
DISL,ioos:station:DISL:PPTA:1,2017-11-06T10:00:00Z,30.2791,-87.5561,1.3,25.6,11111222 
DISL,ioos:station:DISL:PPTA:1,2017-11-06T10:30:00Z,30.2791,-87.5561,1.312,23.67,1111122 
DISL,ioos:station:DISL:PPTA:1,2017-11-06T11:00:00Z,30.2791,-87.5561,1.3,22.9,11111222 
DISL,ioos:station:DISL:PPTA:1,2017-11-06T11:30:00Z,30.2791,-87.5561,1.279,22.17,1111122 
DISL,ioos:station:DISL:PPTA:1,2017-11-06T12:00:00Z,30.2791,-87.5561,1.3,20.8,11111222 
DISL,ioos:station:DISL:PPTA:1,2017-11-06T12:30:00Z,30.2791,-87.5561,1.244,20.63,1111122 
DISL,ioos:station:DISL:PPTA:1,2017-11-06T13:00:00Z,30.2791,-87.5561,1.2,19.7,11111222 
DISL,ioos:station:DISL:PPTA:1,2017-11-06T13:30:00Z,30.2791,-87.5561,1.224,18.95,1111122 
DISL,ioos:station:DISL:PPTA:1,2017-11-06T14:00:00Z,30.2791,-87.5561,1.2,18.5,11111222 
DISL,ioos:station:DISL:PPTA:1,2017-11-06T14:30:00Z,30.2791,-87.5561,1.19,17.45,1111122 
DISL,ioos:station:DISL:PPTA:1,2017-11-06T15:00:00Z,30.2791,-87.5561,1.2,16.7,11111222 
DISL,ioos:station:DISL:PPTA:1,2017-11-06T15:30:00Z,30.2791,-87.5561,1.178,16.26,1111122 